Location: Berkeley
(37.8716°N, 122.2727°W)
Time: 13:44:19
(UTC-07:00)

Hubble Space Telescope - Visible Passes

Search period start: 22 August 2017 00:00
Search period end: 01 September 2017 00:00
Orbit: 538 x 542 km, 28.5° (Epoch: 22 August)

Date Brightness Start Highest point End Pass type
(mag) Time Alt. Az. Time Alt. Az. Time Alt. Az.
22 Aug 2.3 04:55:16 21° S 04:55:16 21° S 04:58:09 10° SE visible
23 Aug 2.6 04:45:56 18° SSE 04:45:56 18° SSE 04:47:52 10° SE visible
24 Aug 3.1 04:36:43 13° SSE 04:36:43 13° SSE 04:37:31 10° SE visible
